Regional Weather Roundup
Issued by NWS

Home | Current Version | Previous Version | Graphics & Text | Print | Product List | Glossary Off
Versions: 1 2 3 4 5 6 7 8 9 10 11 12 13 14 15 16 17 18 19 20 21 22 23 24 25 26 27 28 29 30 31 32 33 34 35 36 37 38 39 40 41 42 43 44 45 46 47 48 49 50

000
ASUS43 KDMX 262304
RWRIA

WEATHER ROUNDUP FOR IOWA
NATIONAL WEATHER SERVICE DES MOINES IA
  ISSUED BY NWS QUAD CITIES IA IL
500 PM CST THU FEB 26 2015

NOTE: "FAIR" INDICATES FEW OR NO CLOUDS BELOW 12,000 FEET WITH NO
SIGNIFICANT WEATHER AND/OR OBSTRUCTIONS TO VISIBILITY.

* - THESE STATIONS ARE NOT NWS STATIONS...THUS NOT UNDER NWS
QUALITY CONTROL.  THEY ALSO DO NOT REPORT WEATHER SUCH
AS PRECIPITATION OR FOG.

IAZ001>003-012>014-020>022-031>034-043>046-270000-
   NORTHWEST IOWA

CITY           SKY/WX    TMP DP  RH WIND       PRES   REMARKS
CARROLL *      FLURRIES   5  -4  66 NW16      30.48S WCI -14
CHEROKEE *     CLEAR      4  -4  67 NW13      30.50R WCI -12
DENNISON *     MOSUNNY    5  -6  61 N12G17    30.48R WCI -11
LE MARS *      CLOUDY     7  -2  66 NW13      30.52R WCI  -9
ORANGE CITY *  SUNNY      7  -4  61 N10       30.48R WCI  -8
SIOUX CITY     CLOUDY    11   0  61 NW18G26   30.52S WCI  -7
SPENCER        MOSUNNY    5  -5  63 NW14      30.47R WCI -12
$$

IAZ055>058-069>071-079>083-090>094-270000-
   SOUTHWEST IOWA

CITY           SKY/WX    TMP DP  RH WIND       PRES   REMARKS
ATLANTIC *     MOSUNNY    5  -6  61 NW15G21   30.50S WCI -13
AUDUBON *      SUNNY      5  -6  61 NW10      30.48S WCI -10
CLARINDA *     MOSUNNY   10  -2  56 N16       30.53S WCI  -7
COUNCIL BLFS * PTSUNNY    9  -2  61 N14G22    30.49S WCI  -8
CRESTON *      PTSUNNY    7  -4  61 N15G22    30.47R WCI -11
HARLAN *       MOSUNNY    7  -2  66 N16G22    30.54R WCI -11
LAMONI         CLOUDY     9  -3  58 N15       30.45R WCI  -8
RED OAK *      PTSUNNY    9  -2  61 N15G21    30.52R WCI  -8
SHENANDOAH *   PTSUNNY   10   0  61 N14       30.53S WCI  -5
$$

IAZ047>049-059>061-072>074-084-270000-
   CENTRAL IOWA

CITY           SKY/WX    TMP DP  RH WIND       PRES   REMARKS
AMES           PTSUNNY    6  -5  60 N18       30.48R WCI -13
ANKENY *       PTSUNNY    7  -6  56 N14       30.49R WCI -10
BOONE *        CLOUDY     7  -4  61 NW14      30.45R WCI -10
CHARITON *     LGT SNOW   9   0  66 NW14G23   30.46R WCI  -8
DES MOINES     MOSUNNY    9  -4  55 NW17      30.48R WCI  -9
GRINNELL *     CLEAR      5  -5  64 NW14G20   30.45R WCI -13
KNOXVILLE *    MOCLDY     7  -6  56 N15G24    30.45R WCI -11
MARSHALLTOWN   CLEAR      4  -6  63 NW14      30.45R WCI -14
PELLA *        CLEAR      8  -1  65 N17       30.48S WCI -10
PERRY *          N/A      6  -3  66 NW12      30.49R WCI  -9
$$

IAZ004>006-015-016-023>025-035-036-270000-
   NORTH CENTRAL IOWA

CITY           SKY/WX    TMP DP  RH WIND       PRES   REMARKS
ALGONA *       PTSUNNY    3  -4  72 NW12      30.47R WCI -13
CLARION *      MOCLDY     3  -6  66 NW17      30.46R WCI -17
ESTHERVILLE    PTSUNNY    2  -6  69 N15       30.46R WCI -17
FORT DODGE *   MOSUNNY    3  -8  60 N8        30.48R WCI -10
MASON CITY     CLEAR      2  -7  66 NW12      30.44R WCI -15
FOREST CITY *  FAIR       3  -8  60 NW12      30.44R WCI -13
WEBSTER CITY * PTSUNNY    5  -4  66 NW16      30.46R WCI -14
IOWA FALLS *   FAIR       4  -5  67 NW13      30.45R WCI -13
$$

IAZ007>011-017>019-026>030-037>042-050>054-066-270000-
   NORTHEAST IOWA

CITY           SKY/WX    TMP DP  RH WIND       PRES   REMARKS
CEDAR RAPIDS   CLEAR      6  -4  63 NW15      30.41R WCI -12
CHARLES CITY * MOCLDY     3  -6  66 NW13      30.43R WCI -14
CLINTON *      CLEAR      7  -2  66 W6        30.40R WCI  -3
DECORAH *      CLEAR      5  -8  56 N12       30.38R WCI -11
DUBUQUE        CLEAR      9  -4  55 NW13      30.34R WCI  -7
MONTICELLO *   CLEAR      7  -2  66 NW15      30.39R WCI -11
OELWEIN *      CLEAR      3  -6  66 NW15      30.41R WCI -15
WATERLOO       CLEAR      4  -6  63 NW15      30.44R WCI -14
$$

IAZ064-065-067-068-078-270000-
   EAST CENTRAL IOWA

CITY           SKY/WX    TMP DP  RH WIND       PRES   REMARKS
DAVENPORT      CLEAR      9  -4  55 NW10      30.39R WCI  -5
IOWA CITY      CLEAR      8  -3  61 NW17      30.45R WCI -10
MT. PLEASANT * CLEAR      9  -3  59 NW13G18   30.43R WCI  -6
MUSCATINE *    CLEAR     10  -2  56 N14       30.44R WCI  -5
QUAD CITIES    FAIR      12  -3  51 NW12      30.39R WCI  -2
$$

IAZ062-063-075>077-085>089-095>099-270000-
   SOUTHEAST IOWA

CITY           SKY/WX    TMP DP  RH WIND       PRES   REMARKS
BURLINGTON     CLEAR     10  -2  58 NW12      30.41R WCI  -5
FAIRFIELD *    PTCLDY     7  -4  61 NW15      30.44R WCI -11
FORT MADISON * CLEAR      9   0  66 NW12G18   30.42R WCI  -6
KEOKUK *       CLEAR     10  -2  56 NW15G23   30.42R WCI  -6
OSKALOOSA *    FAIR       6  -4  63 NW16      30.46R WCI -12
CENTERVILLE *  FAIR      10  -2  56 NW15      30.45R WCI  -6
OTTUMWA        CLEAR      7  -5  57 NW20      30.45R WCI -13
WASHINGTON *   CLEAR      9   0  66 NW16G23   30.44R WCI  -9
$$

ABBREVIATIONS USED IN REMARKS
   TC - TEMPERATURES IN CELSIUS
  WCI - WIND CHILL INDEX
   HX - HEAT INDEX
  VSB - VISIBILITY
$$



USA.gov is the U.S. government's official web portal to all federal, state and local government web resources and services.